EHI
4 2 0 0 0 0 0 0 0 0 0 1 1 1 2 2 1 2 11 27 47 63 73 83 93 95 88 75 61 42 22 9 4 3 2 1 0 0 0 0 0 0 0 0 0 0 0 0 0
2 1 0 0 0 0 0 0 1 1 0 0 0 0 1 1 3 6 15 35 58 70 73 79 92 97 90 78 67 50 29 13 6 3 1 0 0 0 0 0 0 0 0 0 0 0 0 0 0
0 0 0 0 0 2 2 2 2 1 0 0 1 1 1 1 6 14 26 46 66 73 70 77 93 99 93 84 75 62 40 20 10 5 2 1 0 0 0 0 0 0 0 0 0 0 0 0 0
0 0 0 0 2 5 6 6 4 2 1 1 1 2 2 5 18 32 40 51 64 67 68 78 93 99 96 89 81 70 52 32 17 8 4 2 1 0 0 0 0 0 0 0 0 0 0 0 0
0 0 0 0 3 6 8 7 5 3 2 2 2 2 2 12 35 48 45 44 54 61 66 77 92 98 97 92 86 77 64 46 29 16 8 5 4 2 1 0 1 1 0 0 0 0 0 0 0
0 0 0 0 2 4 5 5 5 6 5 4 4 3 1 13 37 48 42 36 44 57 64 74 87 94 95 94 90 85 75 63 47 30 16 9 7 6 5 4 4 3 2 1 0 0 0 0 0
0 0 0 0 0 1 1 1 4 8 10 7 6 4 2 8 25 41 46 43 43 50 59 67 75 83 87 89 88 84 77 69 59 44 28 18 14 13 12 10 9 7 5 3 1 1 1 1 1
0 0 0 0 0 0 0 0 4 11 16 15 10 6 2 5 21 44 59 58 49 41 44 52 60 65 70 75 77 72 65 59 55 49 37 26 17 13 13 12 10 9 7 5 4 3 3 3 2
0 0 0 0 0 0 0 1 5 15 24 26 22 16 11 14 31 55 69 69 55 37 28 34 42 47 51 55 57 53 46 42 42 40 36 27 14 7 6 6 7 9 8 6 6 7 7 6 4
0 0 0 0 0 1 3 5 9 20 30 35 36 34 31 32 45 63 72 70 58 39 25 24 32 36 37 38 39 36 31 29 28 26 25 21 11 3 2 4 8 10 9 7 6 9 11 10 8
0 0 0 1 0 2 7 13 19 26 34 40 47 52 53 53 58 68 71 67 58 44 31 28 30 31 28 28 31 29 24 20 17 14 13 12 9 5 3 6 11 15 15 13 13 16 17 15 12
0 0 0 1 1 4 11 21 30 38 43 50 57 61 63 65 65 66 67 64 57 49 40 35 34 32 28 28 30 27 22 19 15 10 7 8 9 6 5 7 13 21 27 27 25 26 24 18 14
0 0 0 1 3 8 16 25 36 48 57 63 65 64 62 62 62 61 62 62 59 52 46 42 40 39 37 36 35 32 27 25 22 13 8 11 11 9 7 7 11 20 31 34 31 27 23 17 13
0 0 0 1 5 11 19 26 37 52 65 69 67 63 57 54 55 56 57 59 59 56 52 48 47 47 47 46 44 40 36 33 29 19 14 14 14 12 9 7 7 12 20 26 26 22 18 14 11
0 0 0 1 4 11 20 28 39 54 64 65 62 57 50 46 46 49 51 53 56 56 54 52 50 49 48 47 45 41 38 34 29 21 16 15 14 12 8 5 4 6 8 13 16 16 15 12 9
0 0 0 1 3 10 21 33 43 52 58 56 51 45 39 35 35 37 41 44 46 48 49 49 47 43 41 40 36 32 31 28 22 17 15 14 13 9 5 2 2 4 4 6 10 11 11 10 8
0 0 0 1 4 13 26 38 44 45 44 42 38 32 27 24 23 24 27 29 30 32 34 35 33 31 30 29 24 20 20 18 14 11 11 12 10 6 2 1 2 4 4 5 7 7 7 6 6
0 0 0 2 8 21 35 43 39 32 28 27 24 19 15 13 11 11 12 13 15 15 16 17 17 17 18 17 13 10 9 8 6 6 7 8 6 4 3 2 2 4 5 5 6 6 5 5 6
0 0 1 4 12 24 35 35 27 18 14 13 11 9 8 6 4 4 4 5 6 5 4 6 9 10 10 9 7 5 4 3 3 3 4 4 3 3 3 3 3 4 4 4 5 5 5 5 5
0 0 1 6 13 20 22 19 11 6 4 3 4 5 4 1 1 1 2 3 3 2 1 3 6 7 7 6 4 3 3 3 3 3 3 3 2 2 2 3 3 3 3 3 4 4 4 4 4
0 0 2 6 10 12 11 7 3 1 1 0 2 3 2 0 0 0 1 2 2 1 1 3 5 5 4 4 3 3 3 3 3 3 3 3 2 2 2 2 3 3 3 3 3 3 3 3 3
0 0 2 3 4 5 4 2 1 1 1 1 1 0 0 0 0 0 1 2 1 1 2 3 3 3 2 2 1 1 2 2 2 2 2 2 1 1 1 1 2 3 3 2 2 2 2 2 1
0 0 1 1 1 1 1 0 0 0 1 1 1 0 0 0 0 0 1 2 1 1 2 2 1 1 1 0 0 0 0 0 1 1 1 1 0 0 0 0 1 2 1 1 1 1 1 1 0
0 0 0 0 0 0 0 0 0 0 0 0 0 0 0 0 0 0 1 1 0 0 1 1 1 0 0 0 0 0 0 0 0 0 0 0 0 0 0 0 0 0 0 0 0 0 0 0 0
0 0 0 0 0 0 0 0 0 0 0 0 0 0 0 0 0 0 0 0 0 0 0 0 0 0 0 0 0 0 0 0 0 0 0 0 0 0 0 0 0 0 0 0 0 0 0 0 0
0 0 0 0 0 0 0 0 0 0 0 0 0 0 0 0 0 0 0 0 0 0 0 0 0 0 0 0 0 0 0 0 0 0 0 0 0 0 0 0 0 0 0 0 0 0 0 0 0
0 0 0 0 0 0 0 0 0 0 0 0 0 0 0 0 0 0 0 0 0 0 0 0 0 0 0 0 0 0 0 0 0 0 0 0 0 0 0 0 0 0 0 0 0 0 0 0 0
0 0 0 0 0 0 0 0 0 0 0 0 0 0 0 0 0 0 0 0 0 0 0 0 0 0 0 0 0 0 0 0 0 0 0 0 0 0 0 0 0 0 0 0 0 0 0 0 0
0 0 0 0 0 0 0 0 0 0 0 0 0 0 0 0 0 0 0 0 0 0 0 0 0 0 0 0 0 0 0 0 0 0 0 0 0 0 0 0 0 0 0 0 0 0 0 0 0
0 0 0 0 0 0 0 0 0 0 0 0 0 0 0 0 0 0 0 0 0 0 0 0 0 0 0 0 0 0 0 0 0 0 0 0 0 0 0 0 0 0 0 0 0 0 0 0 0
Wind_Speed
10 7 3 1 1 1 4 6 5 7 5 5 7 8 7 5 3 3 3 15 19 18 14 17 19 20 20 19 19 18 18 17 17 16 16 16 16 15 15 15 14 14 14 13 13 12 12 12 12
7 6 2 1 2 1 5 5 7 8 4 2 5 7 7 5 6 8 6 14 20 18 13 14 20 20 20 19 19 18 18 17 17 16 16 15 15 15 14 14 14 14 13 13 12 12 11 11 11
8 5 2 1 1 4 6 6 8 9 5 1 1 4 4 3 5 6 10 18 17 15 11 15 21 20 20 19 18 18 18 17 17 16 16 15 14 14 14 13 13 13 13 12 12 12 11 11 10
4 1 1 1 7 8 8 9 8 4 2 3 4 4 4 3 3 10 18 18 17 12 10 14 21 20 20 19 18 17 17 17 17 16 16 15 14 14 14 13 13 13 12 12 12 12 11 11 10
2 2 1 4 7 9 10 12 7 1 1 3 7 5 3 5 13 19 18 18 17 12 9 12 19 19 19 19 18 17 17 17 16 16 16 15 15 14 14 13 13 13 13 12 12 12 11 11 10
2 2 2 5 7 8 6 6 1 3 4 4 6 6 2 5 14 15 15 15 15 15 11 11 19 19 18 18 17 17 16 16 16 16 16 15 15 14 14 14 14 13 13 13 13 12 12 11 11
3 2 4 5 7 7 5 3 2 5 4 3 5 6 2 4 10 14 13 13 12 12 10 8 10 13 17 17 16 16 16 15 15 15 15 15 15 14 14 14 14 14 14 13 13 13 13 12 12
4 1 4 4 6 7 6 5 2 5 4 4 5 7 5 5 10 13 13 12 11 9 8 7 7 7 8 10 15 16 15 15 15 15 15 15 15 14 14 12 13 15 15 15 15 14 14 13 13
1 0 5 5 5 7 7 4 4 5 7 5 4 4 5 9 13 15 13 10 9 8 6 6 6 6 6 6 11 12 14 14 14 12 15 13 6 6 8 12 14 15 15 16 15 15 15 14 13
4 4 10 9 7 8 9 4 1 5 8 6 7 9 9 8 11 12 13 12 10 10 8 6 6 6 6 7 6 4 5 5 5 4 6 4 4 4 7 9 16 16 16 17 16 16 14 12 6
5 9 11 13 14 10 7 4 3 6 6 4 8 9 10 10 9 9 8 9 9 9 8 7 6 7 7 5 5 4 3 3 3 4 4 3 3 4 5 4 8 10 13 9 11 11 7 6 5
7 11 13 14 14 8 6 1 5 7 8 10 13 13 13 13 10 8 7 6 6 7 7 6 5 5 6 5 5 4 3 4 4 5 6 4 3 4 4 3 4 5 5 6 6 5 7 7 7
8 12 13 13 11 6 1 4 9 11 13 15 16 16 15 13 11 8 7 6 7 6 5 5 5 4 3 3 3 4 4 4 4 3 4 5 4 4 4 3 4 5 5 6 6 6 7 8 8
8 9 10 8 6 1 6 6 8 9 13 16 17 15 13 12 12 10 8 7 6 5 3 3 3 3 3 2 1 2 2 2 3 3 3 4 3 3 3 3 3 4 5 6 6 7 7 6 6
5 8 11 6 3 2 8 10 9 8 13 17 16 15 14 12 11 10 8 7 6 6 5 4 5 4 4 3 1 1 2 3 3 2 2 3 3 3 2 2 2 3 3 4 4 6 5 5 7
7 6 6 8 4 0 11 8 8 6 13 14 13 12 11 10 10 8 8 7 6 6 6 5 5 5 4 3 3 2 2 2 2 2 2 2 3 3 2 2 3 3 3 3 3 4 4 5 6
4 4 6 7 6 5 11 10 8 8 12 11 10 9 9 8 8 7 7 7 6 5 5 6 6 5 4 4 3 2 2 2 1 1 1 1 1 2 1 2 2 3 2 3 4 3 4 5 6
6 4 4 3 6 16 16 12 10 9 10 9 8 7 7 7 6 5 6 6 5 5 5 6 6 5 4 3 3 3 3 2 1 1 0 0 1 1 1 2 2 2 2 2 2 3 3 4 4
5 3 4 2 6 13 16 14 10 8 8 7 5 5 5 4 3 4 5 5 5 4 5 5 5 5 4 3 3 2 2 2 2 1 1 1 1 1 1 2 2 2 2 3 2 2 4 4 3
1 1 2 4 9 11 13 12 7 7 5 3 2 2 3 2 2 3 3 3 4 3 3 4 4 3 3 2 1 1 1 1 1 2 2 2 2 2 2 2 2 2 2 2 2 2 2 3 2
3 1 2 5 8 9 9 6 6 4 4 3 3 2 1 2 2 1 2 2 3 3 2 3 3 3 2 2 2 2 3 3 3 3 3 3 3 3 2 3 3 3 2 2 3 3 3 3 3
3 3 3 6 6 2 3 3 2 3 3 2 2 1 1 1 2 2 3 2 2 2 2 3 2 2 2 2 3 3 2 1 2 3 3 4 4 3 3 3 3 3 2 3 3 3 2 3 3
2 1 4 5 6 5 5 5 2 3 3 2 3 2 1 2 2 3 3 3 2 2 2 2 3 2 2 2 2 2 1 2 2 3 4 4 4 4 4 3 3 3 3 3 3 3 3 2 3
1 5 6 6 6 5 3 2 2 4 4 3 3 3 3 3 1 1 2 3 3 3 3 3 3 2 2 2 2 1 2 3 3 4 4 4 3 4 4 3 2 2 2 3 4 3 4 3 3
6 5 4 5 6 1 2 2 3 5 5 5 4 3 2 1 1 2 3 3 3 3 3 3 3 2 3 3 3 2 2 2 3 3 3 4 3 3 5 4 3 3 3 3 3 3 3 3 3
1 6 6 3 3 1 2 0 5 5 4 3 3 2 1 2 2 3 3 3 3 3 3 3 3 2 3 3 4 3 3 2 3 4 3 4 3 4 5 4 4 4 4 3 3 3 3 3 3
3 2 3 7 4 4 0 2 4 1 2 1 1 2 2 2 3 4 3 3 2 2 2 2 2 2 3 4 4 4 4 4 4 5 4 4 4 5 4 4 4 4 4 4 3 3 4 3 3
3 3 6 6 5 3 1 1 3 3 2 1 2 3 3 3 4 4 3 3 2 2 2 2 2 3 3 4 4 4 4 5 5 4 5 5 5 5 5 4 4 5 5 4 4 3 4 3 3
5 5 6 4 5 6 3 2 3 5 4 4 3 3 3 3 3 2 1 2 2 3 3 3 4 4 4 4 4 5 5 5 5 4 5 6 5 5 5 5 5 5 5 5 4 4 4 4 4
3 3 6 5 2 4 5 3 1 5 4 4 3 3 3 3 2 1 1 2 3 3 3 4 4 4 4 5 5 5 6 5 5 6 6 6 6 6 5 5 5 5 5 5 5 6 5 4 5
Wind_Direction
157 152 151 121 62 18 287 278 288 301 312 350 37 67 72 64 105 132 118 139 138 145 151 151 149 146 144 142 141 140 138 136 135 133 133 132 132 131 131 132 132 132 130 130 129 127 126 125 125
152 158 154 74 94 25 274 261 279 271 275 358 41 68 66 63 87 108 117 141 141 144 147 150 150 148 147 146 145 145 144 142 141 140 140 140 140 140 140 140 139 138 137 136 136 135 134 133 133
167 178 133 109 208 203 252 252 257 273 264 205 79 34 64 83 108 121 140 141 138 141 144 154 151 150 149 149 149 149 149 148 148 147 148 148 149 149 148 148 148 146 145 145 145 143 142 143 143
160 143 354 233 244 235 238 260 267 270 346 26 104 55 18 359 116 130 136 139 137 139 143 154 152 152 152 152 153 154 154 154 154 154 155 156 157 158 157 157 156 155 155 155 154 152 152 153 154
101 126 216 261 250 247 243 252 248 156 110 101 108 99 23 10 106 128 139 141 141 141 145 153 153 153 154 156 157 158 159 159 160 160 161 163 166 167 166 166 167 166 165 164 164 163 162 163 166
142 160 206 255 262 272 262 251 159 93 108 122 110 109 52 99 121 138 141 142 143 144 146 151 156 156 157 159 161 161 163 164 165 166 168 170 173 174 174 174 175 176 175 175 174 174 175 176 177
184 198 233 260 288 301 305 308 97 102 95 123 130 115 141 138 143 140 136 134 136 141 144 148 156 160 162 163 165 166 167 168 170 172 174 177 180 182 182 183 184 184 184 185 185 184 185 186 187
196 150 284 286 296 297 315 350 48 77 75 108 117 131 174 175 135 127 124 125 128 134 145 147 149 154 159 165 170 172 173 175 177 179 182 184 187 189 191 191 193 193 193 193 194 193 194 194 195
228 34 261 257 270 281 309 349 18 62 82 62 64 118 157 135 124 120 116 116 126 133 145 152 155 153 153 162 177 177 180 183 184 187 190 189 192 194 197 202 204 204 203 203 202 201 200 200 203
161 202 241 239 252 280 303 322 19 76 71 61 58 57 78 99 112 121 131 142 147 152 163 168 168 166 164 178 172 174 184 183 183 186 195 188 185 200 208 214 213 214 213 212 211 210 206 203 203
196 221 252 264 267 271 286 325 16 105 69 82 104 90 71 68 76 92 121 138 148 155 163 163 173 177 179 185 164 177 181 173 184 190 196 195 195 207 217 215 222 220 218 218 217 214 209 202 195
238 252 255 265 271 268 269 241 54 71 99 99 95 91 77 67 64 71 90 119 130 134 146 152 174 176 180 178 169 173 178 179 193 202 197 194 209 219 220 218 223 217 212 207 210 210 206 204 201
250 258 263 262 267 259 105 77 91 82 90 92 86 80 78 74 64 60 76 97 104 119 140 156 169 172 172 157 169 171 183 184 182 188 197 195 204 219 211 216 217 213 208 207 206 210 211 210 209
258 274 285 281 276 246 108 75 80 88 91 85 78 74 75 74 73 66 61 68 73 77 86 113 113 110 102 108 139 150 156 148 157 174 188 192 201 227 225 219 220 220 213 211 208 210 211 213 212
299 313 309 299 300 181 101 58 68 95 90 81 76 73 70 67 70 70 65 62 62 58 54 68 93 82 93 104 119 115 122 125 135 141 148 163 181 203 213 228 230 230 223 219 214 215 212 218 218
341 333 312 310 341 111 97 86 61 69 85 82 78 77 72 66 69 72 73 70 63 58 52 46 61 58 65 72 71 69 75 101 128 150 159 165 173 187 192 222 235 239 233 221 211 207 212 222 220
348 312 295 317 6 62 84 89 62 53 74 81 80 78 78 73 70 72 75 77 73 70 65 54 47 51 51 49 47 55 68 79 117 130 148 205 198 190 201 228 236 239 243 240 236 210 205 219 224
279 290 307 334 43 78 84 84 67 57 67 69 79 83 75 79 77 83 86 85 78 72 70 62 51 43 41 37 35 29 34 27 24 35 8 298 264 229 226 240 252 236 241 243 250 241 223 220 224
261 308 323 5 82 82 86 81 68 61 59 54 52 80 91 91 94 94 97 98 89 73 69 62 57 43 42 36 28 20 358 352 350 334 308 295 283 265 230 249 258 246 235 236 235 243 244 235 210
306 342 340 62 83 93 91 75 56 52 54 60 78 87 100 86 68 85 100 92 92 90 83 77 68 58 54 52 41 15 326 318 314 326 330 310 289 274 253 236 249 251 245 249 240 233 243 246 204
323 220 180 128 92 98 107 56 17 10 9 16 35 60 109 156 147 140 110 102 98 92 97 93 84 69 57 53 43 22 14 358 354 340 324 310 298 284 271 254 248 250 240 242 237 220 231 242 235
296 265 130 121 103 81 93 122 312 311 328 351 2 4 179 148 146 143 128 115 111 113 102 95 89 64 45 55 60 50 33 335 297 296 300 306 304 294 274 257 247 242 240 243 246 226 220 229 238
263 26 93 110 103 80 40 93 301 300 298 284 254 223 184 189 175 158 149 131 107 99 95 84 65 38 21 37 54 49 1 287 291 309 320 318 314 306 299 273 250 244 243 242 240 238 232 229 231
76 67 57 57 71 61 351 104 254 249 244 250 239 227 190 198 187 148 106 89 68 63 64 62 57 24 12 22 20 21 333 319 326 323 316 311 307 305 305 290 264 249 249 250 245 237 233 231 221
47 74 41 20 35 34 311 74 254 250 240 223 230 224 211 178 98 79 68 57 46 44 40 41 48 17 355 350 333 319 307 300 296 294 292 298 300 299 298 296 273 258 248 249 246 243 239 231 220
1 125 143 161 162 150 345 212 256 252 250 233 220 184 132 104 90 86 79 70 60 55 44 35 31 353 334 334 319 312 310 293 283 282 277 278 273 274 282 288 280 269 257 254 248 250 245 230 228
29 10 147 122 94 94 83 280 298 277 266 218 141 87 101 95 89 86 78 69 60 49 28 19 13 337 323 321 314 312 311 300 289 287 282 282 280 285 292 291 290 284 266 252 242 245 253 242 230
117 126 67 83 110 106 129 223 229 214 213 129 104 112 103 86 80 78 67 50 34 24 360 358 349 321 311 316 312 323 308 300 295 293 292 288 285 287 292 288 284 278 270 257 244 243 245 241 238
25 38 80 91 123 133 137 280 229 178 167 152 150 146 131 114 107 91 50 19 10 1 354 343 335 328 319 314 306 308 303 300 301 298 291 286 282 284 283 278 274 270 264 255 244 243 237 234 242
124 122 114 107 50 104 122 249 259 157 159 152 152 142 125 121 118 89 34 8 357 345 333 327 320 316 307 306 309 306 303 304 303 295 289 286 282 278 275 276 272 268 264 251 240 244 240 228 232